Weather History for Ravenna, OH

Change the Weather History Date:

Tuesday, September 17, 2013

  Actual Average (KCAK) Record (KCAK)
Temperature  
Mean Temperature 54 °F 63 °F  
Max Temperature 67 °F 73 °F 90 °F (1955)
Min Temperature 40 °F 53 °F 35 °F (1959)
Degree Days  
Heating Degree Days 12 4  
Month to date heating degree days 37  
Since 1 July heating degree days 57  
Cooling Degree Days 0 2  
Month to date cooling degree days 50  
Year to date cooling degree days 632  
Growing Degree Days 4 (Base 50)    
Moisture  
Dew Point 44 °F    
Average Humidity 77    
Maximum Humidity 100    
Minimum Humidity 37    
Precipitation  
Precipitation 0.00 in 0.12 in 1.66 in (2004)
Month to date precipitation 2.02  
Year to date precipitation 29.22  
Snow  
Snow 0.00 in 0.00 in - ()
Month to date snowfall 0.0  
Since 1 July snowfall 0.0  
Since 1 September snowfall 0.0  
Snow Depth -    
Sea Level Pressure  
Sea Level Pressure 30.34 in    
Wind  
Wind Speed 4 mph (East)    
Max Wind Speed 10 mph    
Max Gust Speed -    
Visibility 10 miles    
Events      
T = Trace of Precipitation, MM = Missing Value Source: NWS Daily Summary

Daily Weather History Graph

Daily Weather History Graph

Search for Another Location

Airport:

Trip Planner

Search our weather history database for the weather conditions in past years. The results will help you decide how hot, cold, wet, or windy it might be!

Date:

Astronomy

Sep. 17, 2013 Rise Set
Actual Time 7:07 AM EDT 7:30 PM EDT
Civil Twilight 6:40 AM EDT 7:57 PM EDT
Nautical Twilight 6:07 AM EDT 8:30 PM EDT
Astronomical Twilight 5:34 AM EDT 9:03 PM EDT
Moon 6:17 PM EDT (9/17) 4:59 AM EDT (9/17)
Length of Visible Light 13h 17m
Length of Day
12h 22m
Waxing Gibbous, 96% of the Moon is Illuminated
Sep 17
Waxing Gibbous
Sep 19
Full
Sep 26
Last Quarter
Oct 4
New
Oct 11
First Quarter

Hourly Weather History & Observations

Time (EDT) Temp. Windchill Dew Point Humidity Pressure Visibility Wind Dir Wind Speed Gust Speed Precip Events Conditions
12:14 AM 47.3 °F - 47.5 °F 100% 30.35 in 7.0 mi Calm Calm - N/A   Clear
12:34 AM 46.0 °F 43.9 °F 46.2 °F 100% 30.35 in 10.0 mi NE 4.6 mph - N/A   Clear
12:54 AM 46.9 °F - 47.1 °F 100% 30.35 in 7.0 mi ENE 3.5 mph - N/A   Clear
1:14 AM 47.5 °F - 47.7 °F 100% 30.35 in 10.0 mi NE 4.6 mph - N/A   Clear
1:34 AM 45.7 °F 44.4 °F 45.9 °F 100% 30.36 in 10.0 mi ENE 3.5 mph - N/A   Clear
1:55 AM 45.9 °F 43.6 °F 45.9 °F 100% 30.36 in 10.0 mi East 4.6 mph - N/A   Clear
2:14 AM 45.5 °F 43.2 °F 45.5 °F 100% 30.37 in 7.0 mi ENE 4.6 mph - N/A   Clear
2:34 AM 44.8 °F 43.3 °F 45.1 °F 100% 30.37 in 10.0 mi ENE 3.5 mph - N/A   Clear
2:54 AM 44.6 °F - 44.6 °F 100% 30.37 in 10.0 mi Calm Calm - N/A   Clear
3:14 AM 44.6 °F 43.1 °F 44.6 °F 100% 30.37 in 10.0 mi ENE 3.5 mph - N/A   Clear
3:34 AM 43.0 °F 41.3 °F 43.2 °F 100% 30.37 in 7.0 mi ENE 3.5 mph - N/A   Clear
3:55 AM 42.6 °F 40.9 °F 42.8 °F 100% 30.37 in 7.0 mi ENE 3.5 mph - N/A   Clear
4:14 AM 42.8 °F - 42.8 °F 100% 30.37 in 10.0 mi Calm Calm - N/A   Clear
4:34 AM 42.4 °F 40.7 °F 42.4 °F 100% 30.37 in 7.0 mi ENE 3.5 mph - N/A   Clear
4:54 AM 41.4 °F 38.4 °F 41.5 °F 100% 30.37 in 7.0 mi ENE 4.6 mph - N/A   Clear
5:14 AM 41.5 °F 39.6 °F 41.7 °F 100% 30.38 in 10.0 mi East 3.5 mph - N/A   Clear
5:34 AM 42.3 °F 40.5 °F 42.4 °F 100% 30.38 in 10.0 mi ENE 3.5 mph - N/A   Clear
5:54 AM - - - N/A% 30.38 in 10.0 mi ENE 3.5 mph - N/A   Clear
6:14 AM 40.8 °F 38.8 °F 41.0 °F 100% 30.39 in 10.0 mi ENE 3.5 mph - N/A   Clear
6:34 AM 40.1 °F 38.0 °F 40.3 °F 100% 30.39 in 7.0 mi East 3.5 mph - N/A   Clear
6:54 AM 40.5 °F - 40.6 °F 100% 30.39 in 10.0 mi Calm Calm - N/A   Clear
7:14 AM 40.1 °F 36.9 °F 40.3 °F 100% 30.40 in 5.0 mi ENE 4.6 mph - N/A   Clear
7:34 AM - - - N/A% 30.40 in 7.0 mi ENE 4.6 mph - N/A   Clear
7:54 AM 41.9 °F 39.0 °F 42.1 °F 100% 30.41 in 10.0 mi East 4.6 mph - N/A   Clear
8:14 AM 43.7 °F 39.7 °F 43.9 °F 100% 30.42 in 10.0 mi East 6.9 mph - N/A   Clear
8:34 AM 44.6 °F 40.7 °F 44.8 °F 100% 30.42 in 10.0 mi East 6.9 mph - N/A   Clear
8:54 AM 46.0 °F 42.5 °F 46.0 °F 100% 30.41 in 10.0 mi East 6.9 mph - N/A   Clear
9:14 AM 47.3 °F - 47.5 °F 100% 30.40 in 10.0 mi East 10.4 mph - N/A   Clear
9:34 AM 48.7 °F - 48.6 °F 99% 30.41 in 10.0 mi East 6.9 mph - N/A   Clear
9:54 AM 50.9 °F - 48.4 °F 91% 30.41 in 10.0 mi East 5.8 mph - N/A   Clear
10:14 AM 51.8 °F - 48.0 °F 87% 30.40 in 10.0 mi East 8.1 mph - N/A   Clear
10:34 AM 52.9 °F - 47.8 °F 83% 30.40 in 10.0 mi ENE 6.9 mph - N/A   Clear
10:54 AM 54.5 °F - 47.3 °F 77% 30.40 in 10.0 mi East 6.9 mph - N/A   Clear
11:14 AM 55.4 °F - 47.3 °F 74% 30.40 in 10.0 mi ENE 5.8 mph - N/A   Clear
11:34 AM 56.7 °F - 47.1 °F 70% 30.39 in 10.0 mi East 5.8 mph - N/A   Clear
11:55 AM 57.4 °F - 45.9 °F 65% 30.39 in 10.0 mi East 8.1 mph - N/A   Clear
12:14 PM 59.7 °F - 45.9 °F 60% 30.38 in 10.0 mi ESE 6.9 mph - N/A   Clear
12:34 PM 60.6 °F - 44.1 °F 54% 30.38 in 10.0 mi East 6.9 mph - N/A   Clear
12:54 PM 61.7 °F - 43.9 °F 52% 30.37 in 10.0 mi ENE 4.6 mph - N/A   Clear
1:14 PM 62.2 °F - 42.6 °F 49% 30.37 in 10.0 mi East 3.5 mph - N/A   Clear
1:34 PM 63.3 °F - 42.6 °F 47% 30.36 in 10.0 mi SE 4.6 mph - N/A   Clear
1:54 PM 64.0 °F - 42.3 °F 45% 30.36 in 10.0 mi East 5.8 mph - N/A   Clear
2:14 PM 64.6 °F - 42.3 °F 44% 30.35 in 10.0 mi Calm Calm - N/A   Clear
2:34 PM 65.3 °F - 40.1 °F 40% 30.35 in 10.0 mi East 5.8 mph - N/A   Clear
2:55 PM 66.0 °F - 40.8 °F 40% 30.33 in 10.0 mi ESE 4.6 mph - N/A   Clear
3:14 PM 65.8 °F - 38.8 °F 37% 30.33 in 10.0 mi SE 3.5 mph - N/A   Clear
3:34 PM 66.4 °F - 39.9 °F 38% 30.32 in 10.0 mi SE 3.5 mph - N/A   Clear
3:55 PM 66.7 °F - 40.6 °F 39% 30.31 in 10.0 mi ESE 8.1 mph - N/A   Clear
4:14 PM 67.1 °F - 41.7 °F 40% 30.30 in 10.0 mi ESE 4.6 mph - N/A   Clear
4:34 PM 67.3 °F - 42.3 °F 40% 30.30 in 10.0 mi East 8.1 mph - N/A   Clear
4:54 PM 67.1 °F - 41.0 °F 39% 30.30 in 10.0 mi ESE 6.9 mph - N/A   Clear
5:14 PM 67.1 °F - 40.6 °F 38% 30.29 in 10.0 mi East 6.9 mph - N/A   Clear
5:34 PM 66.6 °F - 40.5 °F 38% 30.28 in 10.0 mi East 6.9 mph - N/A   Clear
5:54 PM 66.2 °F - 42.1 °F 41% 30.28 in 10.0 mi East 4.6 mph - N/A   Clear
6:14 PM 65.3 °F - 41.2 °F 41% 30.28 in 10.0 mi East 5.8 mph - N/A   Clear
6:34 PM 63.9 °F - 43.5 °F 48% 30.28 in 10.0 mi East 4.6 mph - N/A   Clear
6:55 PM 59.7 °F - 47.1 °F 63% 30.27 in 10.0 mi East 3.5 mph - N/A   Clear
7:14 PM 57.4 °F - 48.0 °F 71% 30.27 in 10.0 mi ENE 4.6 mph - N/A   Clear
7:35 PM 54.3 °F - 47.3 °F 77% 30.27 in 10.0 mi ENE 4.6 mph - N/A   Clear
7:54 PM 53.8 °F - 46.4 °F 76% 30.27 in 10.0 mi ENE 3.5 mph - N/A   Clear
8:14 PM 51.1 °F - 46.0 °F 83% 30.27 in 10.0 mi ENE 4.6 mph - N/A   Clear
8:34 PM 51.8 °F - 45.7 °F 80% 30.27 in 10.0 mi East 4.6 mph - N/A   Clear
8:55 PM 50.9 °F - 46.0 °F 83% 30.27 in 10.0 mi East 4.6 mph - N/A   Clear
9:14 PM 50.0 °F - 44.1 °F 80% 30.27 in 10.0 mi East 4.6 mph - N/A   Clear
9:34 PM 48.6 °F - 44.2 °F 85% 30.27 in 10.0 mi East 4.6 mph - N/A   Clear
9:54 PM 48.2 °F - 45.7 °F 91% 30.27 in 10.0 mi East 4.6 mph - N/A   Clear
10:14 PM 47.8 °F - 43.9 °F 86% 30.27 in 10.0 mi East 3.5 mph - N/A   Clear
10:34 PM 47.7 °F - 44.2 °F 88% 30.27 in 10.0 mi East 4.6 mph - N/A   Clear
10:54 PM 47.7 °F - 43.5 °F 86% 30.27 in 10.0 mi East 4.6 mph - N/A   Clear
11:14 PM 48.2 °F - 42.8 °F 82% 30.27 in 10.0 mi East 4.6 mph - N/A   Clear
11:34 PM 47.5 °F - 43.0 °F 84% 30.26 in 10.0 mi East 4.6 mph - N/A   Clear
11:55 PM 47.1 °F - 42.8 °F 85% 30.26 in 10.0 mi East 4.6 mph - N/A   Clear